This is the latest recevied weather packets stored in our database for station/object PU2UHW-13. If no packets are shown the sender has not sent any weather packets the latest 1 day(s).
| Time | Temp. | Humidity | Pressure | Rain* | Wind** | Luminosity | Snow |
|---|---|---|---|---|---|---|---|
| 1778051154 | 15° C | 86% | 1025.3 hPa | - | - | - | - |
| 1778050434 | 15.56° C | 81% | 1025 hPa | - | - | - | - |
| 1778050074 | 15.56° C | 80% | 1025 hPa | - | - | - | - |
| 1778049894 | 16.11° C | 80% | 1025.1 hPa | - | - | - | - |
| 1778049714 | 16.11° C | 80% | 1025.1 hPa | - | - | - | - |
| 1778048814 | 16.11° C | 78% | 1025.1 hPa | - | - | - | - |
| 1778048634 | 16.67° C | 76% | 1025 hPa | - | - | - | - |
| 1778048454 | 16.67° C | 77% | 1024.9 hPa | - | - | - | - |
| 1778048274 | 16.67° C | 77% | 1024.9 hPa | - | - | - | - |
| 1778048094 | 16.67° C | 78% | 1025.1 hPa | - | - | - | - |
| 1778047554 | 16.67° C | 79% | 1025.2 hPa | - | - | - | - |
| 1778046654 | 16.11° C | 81% | 1025.3 hPa | - | - | - | - |
| 1778045754 | 16.67° C | 80% | 1025.3 hPa | - | - | - | - |
| 1778045574 | 16.11° C | 82% | 1025.3 hPa | - | - | - | - |
| 1778045394 | 16.11° C | 81% | 1025.3 hPa | - | - | - | - |
| 1778044854 | 17.22° C | 77% | 1024.9 hPa | - | - | - | - |
| 1778044494 | 16.67° C | 79% | 1024.9 hPa | - | - | - | - |
| 1778044314 | 16.67° C | 78% | 1024.9 hPa | - | - | - | - |
| 1778044134 | 16.67° C | 78% | 1024.9 hPa | - | - | - | - |
| 1778043954 | 16.11° C | 79% | 1025 hPa | - | - | - | - |
| 1778043054 | 16.67° C | 76% | 1024.9 hPa | - | - | - | - |
| 1778042874 | 16.11° C | 77% | 1025.1 hPa | - | - | - | - |
| 1778042694 | 16.11° C | 78% | 1025.1 hPa | - | - | - | - |
| 1778042514 | 16.67° C | 78% | 1025 hPa | - | - | - | - |
| 1778042334 | 16.11° C | 80% | 1025.2 hPa | - | - | - | - |
* Rain since midnight (hover to see other rain measurements)
** Current wind speed in m/s (hover to see current wind gust speed)